Time,TemperatureF,DewpointF,PressureIn,WindDirection,WindDirectionDegrees,WindSpeedMPH,WindSpeedGustMPH,Humidity,HourlyPrecipIn,Conditions,Clouds,dailyrainin,SoftwareType,DateUTC
2013-03-06 00:02:00,16.0,14.0,-100.00,NW,320,11.0,14.0,93,0.00,,,0.00,,2013-03-06 06:02:00,
2013-03-06 00:11:00,16.0,14.0,-100.00,NNW,330,8.0,13.0,93,0.00,,,0.00,,2013-03-06 06:11:00,
2013-03-06 00:22:00,16.0,14.0,-100.00,NW,325,11.0,14.0,93,0.00,,,0.00,,2013-03-06 06:22:00,
2013-03-06 00:31:00,16.0,14.0,-100.00,NNW,330,11.0,14.0,93,0.00,,,0.00,,2013-03-06 06:31:00,
2013-03-06 00:42:00,15.0,14.0,-100.00,NW,325,10.0,14.0,93,0.00,,,0.00,,2013-03-06 06:42:00,
2013-03-06 00:52:00,15.0,14.0,-100.00,NW,325,11.0,16.0,93,0.00,,,0.00,,2013-03-06 06:52:00,
2013-03-06 01:01:00,15.0,12.0,-100.00,NW,315,10.0,14.0,93,0.00,,,0.00,,2013-03-06 07:01:00,
2013-03-06 01:11:00,15.0,12.0,-100.00,NW,315,10.0,14.0,93,0.00,,,0.00,,2013-03-06 07:11:00,
2013-03-06 01:22:00,14.0,12.0,-100.00,NW,320,9.0,13.0,93,0.00,,,0.00,,2013-03-06 07:22:00,
2013-03-06 01:31:00,14.0,12.0,-100.00,NW,320,9.0,12.0,93,0.00,,,0.00,,2013-03-06 07:31:00,
2013-03-06 01:42:00,14.0,12.0,-100.00,NW,315,9.0,11.0,93,0.00,,,0.00,,2013-03-06 07:42:00,
2013-03-06 01:52:00,13.0,12.0,-100.00,NW,325,7.0,10.0,93,0.00,,,0.00,,2013-03-06 07:52:00,
2013-03-06 02:01:00,14.0,12.0,-100.00,NNW,340,6.0,12.0,93,0.00,,,0.00,,2013-03-06 08:01:00,
2013-03-06 02:11:00,13.0,12.0,-100.00,NW,325,7.0,11.0,93,0.00,,,0.00,,2013-03-06 08:11:00,
2013-03-06 02:21:00,13.0,12.0,-100.00,NNW,330,7.0,11.0,93,0.00,,,0.00,,2013-03-06 08:21:00,
2013-03-06 02:31:00,13.0,12.0,-100.00,NW,325,7.0,12.0,93,0.00,,,0.00,,2013-03-06 08:31:00,
2013-03-06 02:42:00,13.0,12.0,-100.00,NNW,335,7.0,12.0,93,0.00,,,0.00,,2013-03-06 08:42:00,
2013-03-06 02:52:00,14.0,12.0,-100.00,NNW,330,7.0,11.0,93,0.00,,,0.00,,2013-03-06 08:52:00,
2013-03-06 03:01:00,14.0,12.0,-100.00,NNW,335,6.0,10.0,93,0.00,,,0.00,,2013-03-06 09:01:00,
2013-03-06 03:12:00,14.0,12.0,-100.00,NNW,330,5.0,8.0,93,0.00,,,0.00,,2013-03-06 09:12:00,
2013-03-06 03:21:00,14.0,12.0,-100.00,NNW,335,5.0,7.0,93,0.00,,,0.00,,2013-03-06 09:21:00,
2013-03-06 03:31:00,14.0,12.0,-100.00,NNW,330,6.0,8.0,93,0.00,,,0.00,,2013-03-06 09:31:00,
2013-03-06 03:42:00,15.0,12.0,-100.00,NNW,335,5.0,8.0,93,0.00,,,0.00,,2013-03-06 09:42:00,
2013-03-06 03:51:00,15.0,12.0,-100.00,NNW,340,4.0,6.0,93,0.00,,,0.00,,2013-03-06 09:51:00,
2013-03-06 04:01:00,15.0,12.0,-100.00,NNW,335,4.0,7.0,93,0.00,,,0.00,,2013-03-06 10:01:00,
2013-03-06 04:11:00,15.0,12.0,-100.00,NW,325,5.0,7.0,93,0.00,,,0.00,,2013-03-06 10:11:00,
2013-03-06 04:21:00,15.0,14.0,-100.00,NW,325,6.0,8.0,93,0.00,,,0.00,,2013-03-06 10:21:00,
2013-03-06 04:31:00,15.0,14.0,-100.00,NNW,335,7.0,9.0,93,0.00,,,0.00,,2013-03-06 10:31:00,
2013-03-06 04:42:00,15.0,14.0,-100.00,NNW,335,9.0,10.0,93,0.00,,,0.00,,2013-03-06 10:42:00,
2013-03-06 04:51:00,15.0,14.0,-100.00,North,350,6.0,12.0,93,0.00,,,0.00,,2013-03-06 10:51:00,
2013-03-06 05:02:00,15.0,14.0,-100.00,NNW,335,6.0,9.0,93,0.00,,,0.00,,2013-03-06 11:02:00,
2013-03-06 05:11:00,15.0,14.0,-100.00,NNW,335,4.0,7.0,93,0.00,,,0.00,,2013-03-06 11:11:00,
2013-03-06 05:22:00,15.0,14.0,-100.00,NNW,330,6.0,7.0,93,0.00,,,0.00,,2013-03-06 11:22:00,
2013-03-06 05:32:00,15.0,14.0,-100.00,NNW,330,6.0,8.0,93,0.00,,,0.00,,2013-03-06 11:32:00,
2013-03-06 05:42:00,15.0,14.0,-100.00,NNW,340,6.0,9.0,93,0.00,,,0.00,,2013-03-06 11:42:00,
2013-03-06 05:52:00,16.0,14.0,-100.00,NNW,335,6.0,9.0,93,0.00,,,0.00,,2013-03-06 11:52:00,
2013-03-06 06:02:00,16.0,14.0,-100.00,NNW,340,6.0,10.0,93,0.00,,,0.00,,2013-03-06 12:02:00,
2013-03-06 06:11:00,16.0,14.0,-100.00,NNW,345,4.0,7.0,93,0.00,,,0.00,,2013-03-06 12:11:00,
2013-03-06 06:21:00,16.0,14.0,-100.00,NNW,340,4.0,6.0,93,0.00,,,0.00,,2013-03-06 12:21:00,
2013-03-06 06:32:00,16.0,14.0,-100.00,NNW,340,6.0,8.0,93,0.00,,,0.00,,2013-03-06 12:32:00,
2013-03-06 06:42:00,16.0,14.0,-100.00,NNW,340,6.0,8.0,93,0.00,,,0.00,,2013-03-06 12:42:00,
2013-03-06 06:52:00,16.0,14.0,-100.00,NNW,345,5.0,9.0,93,0.00,,,0.00,,2013-03-06 12:52:00,
2013-03-06 07:02:00,17.0,14.0,-100.00,North,350,5.0,7.0,93,0.00,,,0.00,,2013-03-06 13:02:00,
2013-03-06 07:11:00,17.0,14.0,-100.00,North,350,4.0,7.0,93,0.00,,,0.00,,2013-03-06 13:11:00,
2013-03-06 07:22:00,17.0,16.0,-100.00,NNW,335,5.0,9.0,93,0.00,,,0.00,,2013-03-06 13:22:00,
2013-03-06 07:32:00,17.0,16.0,-100.00,NW,325,6.0,7.0,93,0.00,,,0.00,,2013-03-06 13:32:00,
2013-03-06 07:42:00,17.0,16.0,-100.00,NNW,340,4.0,8.0,93,0.00,,,0.00,,2013-03-06 13:42:00,
2013-03-06 07:52:00,17.0,16.0,-100.00,North,0,3.0,7.0,93,0.00,,,0.00,,2013-03-06 13:52:00,
2013-03-06 08:01:00,18.0,16.0,-100.00,North,355,6.0,9.0,93,0.00,,,0.00,,2013-03-06 14:01:00,
2013-03-06 08:11:00,18.0,16.0,-100.00,NNW,345,6.0,10.0,93,0.00,,,0.00,,2013-03-06 14:11:00,
2013-03-06 08:21:00,18.0,16.0,-100.00,NNW,345,7.0,9.0,93,0.00,,,0.00,,2013-03-06 14:21:00,
2013-03-06 08:32:00,18.0,16.0,-100.00,NNW,335,7.0,11.0,93,0.00,,,0.00,,2013-03-06 14:32:00,
2013-03-06 08:42:00,18.0,16.0,-100.00,NW,325,6.0,9.0,93,0.00,,,0.00,,2013-03-06 14:42:00,
2013-03-06 08:52:00,18.0,16.0,-100.00,NNW,330,5.0,7.0,93,0.00,,,0.00,,2013-03-06 14:52:00,
2013-03-06 09:02:00,18.0,16.0,-100.00,NW,325,6.0,7.0,92,0.00,,,0.00,,2013-03-06 15:02:00,
2013-03-06 09:11:00,18.0,16.0,-100.00,NNW,330,6.0,7.0,92,0.00,,,0.00,,2013-03-06 15:11:00,
2013-03-06 09:21:00,19.0,16.0,-100.00,NNW,335,7.0,9.0,91,0.00,,,0.00,,2013-03-06 15:21:00,
2013-03-06 09:32:00,19.0,16.0,-100.00,NNW,330,8.0,10.0,89,0.00,,,0.00,,2013-03-06 15:32:00,
2013-03-06 09:42:00,19.0,16.0,-100.00,North,355,6.0,9.0,86,0.00,,,0.00,,2013-03-06 15:42:00,
2013-03-06 09:52:00,19.0,16.0,-100.00,NNW,340,5.0,9.0,85,0.00,,,0.00,,2013-03-06 15:52:00,
2013-03-06 10:01:00,19.0,14.0,-100.00,NNW,345,6.0,9.0,82,0.00,,,0.00,,2013-03-06 16:01:00,
2013-03-06 10:11:00,20.0,14.0,-100.00,NNW,335,6.0,10.0,81,0.00,,,0.00,,2013-03-06 16:11:00,
2013-03-06 10:21:00,20.0,14.0,-100.00,NNW,335,6.0,9.0,79,0.00,,,0.00,,2013-03-06 16:21:00,
2013-03-06 10:32:00,20.0,14.0,-100.00,North,350,7.0,11.0,78,0.00,,,0.00,,2013-03-06 16:32:00,
2013-03-06 10:42:00,21.0,16.0,-100.00,NW,315,5.0,9.0,76,0.00,,,0.00,,2013-03-06 16:42:00,
2013-03-06 10:52:00,20.0,14.0,-100.00,North,355,7.0,11.0,74,0.00,,,0.00,,2013-03-06 16:52:00,
2013-03-06 11:01:00,20.0,14.0,-100.00,North,355,4.0,7.0,75,0.00,,,0.00,,2013-03-06 17:01:00,
2013-03-06 11:11:00,21.0,14.0,-100.00,NW,320,5.0,7.0,75,0.00,,,0.00,,2013-03-06 17:11:00,
2013-03-06 11:21:00,21.0,14.0,-100.00,North,350,5.0,7.0,70,0.00,,,0.00,,2013-03-06 17:21:00,
2013-03-06 11:32:00,22.0,14.0,-100.00,NNW,345,4.0,6.0,71,0.00,,,0.00,,2013-03-06 17:32:00,
2013-03-06 11:41:00,21.0,14.0,-100.00,NNE,20,4.0,8.0,71,0.00,,,0.00,,2013-03-06 17:41:00,
2013-03-06 11:52:00,24.0,14.0,-100.00,NNW,335,3.0,6.0,67,0.00,,,0.00,,2013-03-06 17:52:00,
2013-03-06 12:02:00,26.0,16.0,-100.00,NW,325,3.0,6.0,63,0.00,,,0.00,,2013-03-06 18:02:00,
2013-03-06 12:28:00,25.0,14.0,-100.00,ENE,65,2.0,4.0,61,0.00,,,0.00,,2013-03-06 18:28:00,
2013-03-06 12:42:00,31.0,16.0,-100.00,SW,220,0.0,1.0,54,0.00,,,0.00,,2013-03-06 18:42:00,
2013-03-06 12:52:00,30.0,14.0,-100.00,NNW,335,2.0,3.0,50,0.00,,,0.00,,2013-03-06 18:52:00,
2013-03-06 13:02:00,27.0,12.0,-100.00,NNW,330,2.0,4.0,53,0.00,,,0.00,,2013-03-06 19:02:00,
2013-03-06 13:11:00,30.0,14.0,-100.00,WSW,255,0.0,3.0,52,0.00,,,0.00,,2013-03-06 19:11:00,
2013-03-06 13:21:00,26.0,12.0,-100.00,East,80,3.0,4.0,55,0.00,,,0.00,,2013-03-06 19:21:00,
2013-03-06 13:32:00,24.0,10.0,-100.00,NNE,30,4.0,6.0,58,0.00,,,0.00,,2013-03-06 19:32:00,
2013-03-06 13:43:00,24.0,12.0,-100.00,North,0,2.0,5.0,59,0.00,,,0.00,,2013-03-06 19:43:00,
2013-03-06 13:52:00,25.0,12.0,-100.00,NNE,30,4.0,5.0,58,0.00,,,0.00,,2013-03-06 19:52:00,
2013-03-06 14:02:00,24.0,12.0,-100.00,NNE,25,4.0,6.0,59,0.00,,,0.00,,2013-03-06 20:02:00,
2013-03-06 14:11:00,25.0,14.0,-100.00,NW,320,2.0,4.0,60,0.00,,,0.00,,2013-03-06 20:11:00,
2013-03-06 14:22:00,29.0,16.0,-100.00,WSW,250,2.0,3.0,55,0.00,,,0.00,,2013-03-06 20:22:00,
2013-03-06 14:32:00,29.0,14.0,-100.00,West,280,1.0,3.0,55,0.00,,,0.00,,2013-03-06 20:32:00,
2013-03-06 14:42:00,28.0,14.0,-100.00,WSW,255,3.0,5.0,55,0.00,,,0.00,,2013-03-06 20:42:00,
2013-03-06 14:52:00,27.0,14.0,-100.00,West,270,4.0,6.0,56,0.00,,,0.00,,2013-03-06 20:52:00,
2013-03-06 15:02:00,26.0,14.0,-100.00,SSW,210,4.0,8.0,58,0.00,,,0.00,,2013-03-06 21:02:00,
2013-03-06 15:11:00,24.0,14.0,-100.00,WSW,245,5.0,8.0,62,0.00,,,0.00,,2013-03-06 21:11:00,
2013-03-06 15:22:00,26.0,14.0,-100.00,West,265,4.0,6.0,62,0.00,,,0.00,,2013-03-06 21:22:00,
2013-03-06 15:32:00,25.0,14.0,-100.00,SW,235,4.0,6.0,62,0.00,,,0.00,,2013-03-06 21:32:00,
2013-03-06 15:42:00,24.0,14.0,-100.00,WSW,250,4.0,6.0,64,0.00,,,0.00,,2013-03-06 21:42:00,
2013-03-06 15:51:00,25.0,14.0,-100.00,West,265,2.0,4.0,64,0.00,,,0.00,,2013-03-06 21:51:00,
2013-03-06 16:01:00,25.0,14.0,-100.00,South,190,2.0,6.0,63,0.00,,,0.00,,2013-03-06 22:01:00,
2013-03-06 16:11:00,24.0,14.0,-100.00,SW,235,4.0,5.0,64,0.00,,,0.00,,2013-03-06 22:11:00,
2013-03-06 16:21:00,26.0,14.0,-100.00,WSW,245,3.0,4.0,63,0.00,,,0.00,,2013-03-06 22:21:00,
2013-03-06 16:32:00,24.0,14.0,-100.00,South,185,3.0,4.0,65,0.00,,,0.00,,2013-03-06 22:32:00,
2013-03-06 16:41:00,24.0,14.0,-100.00,SSW,200,2.0,4.0,65,0.00,,,0.00,,2013-03-06 22:41:00,
2013-03-06 16:51:00,24.0,14.0,-100.00,SSE,160,1.0,2.0,65,0.00,,,0.00,,2013-03-06 22:51:00,
2013-03-06 17:01:00,24.0,14.0,-100.00,SSW,205,2.0,3.0,65,0.00,,,0.00,,2013-03-06 23:01:00,
2013-03-06 17:11:00,22.0,14.0,-100.00,SSW,200,4.0,5.0,67,0.00,,,0.00,,2013-03-06 23:11:00,
2013-03-06 17:21:00,21.0,14.0,-100.00,SSW,200,4.0,7.0,71,0.00,,,0.00,,2013-03-06 23:21:00,
2013-03-06 17:32:00,21.0,14.0,-100.00,South,185,4.0,7.0,72,0.00,,,0.00,,2013-03-06 23:32:00,
2013-03-06 17:42:00,20.0,14.0,-100.00,SSE,165,8.0,9.0,74,0.00,,,0.00,,2013-03-06 23:42:00,
2013-03-06 17:52:00,20.0,14.0,-100.00,South,170,7.0,9.0,75,0.00,,,0.00,,2013-03-06 23:52:00,
2013-03-06 18:01:00,20.0,14.0,-100.00,South,190,7.0,9.0,75,0.00,,,0.00,,2013-03-07 00:01:00,
2013-03-06 18:11:00,20.0,14.0,-100.00,South,180,4.0,9.0,76,0.00,,,0.00,,2013-03-07 00:11:00,
2013-03-06 18:21:00,20.0,14.0,-100.00,South,180,2.0,6.0,76,0.00,,,0.00,,2013-03-07 00:21:00,
2013-03-06 18:32:00,19.0,14.0,-100.00,South,170,6.0,6.0,77,0.00,,,0.00,,2013-03-07 00:32:00,
2013-03-06 18:41:00,19.0,14.0,-100.00,SSE,160,4.0,7.0,78,0.00,,,0.00,,2013-03-07 00:41:00,
2013-03-06 18:51:00,19.0,14.0,-100.00,SSE,150,5.0,6.0,78,0.00,,,0.00,,2013-03-07 00:51:00,
2013-03-06 19:01:00,19.0,14.0,-100.00,SSE,155,5.0,7.0,79,0.00,,,0.00,,2013-03-07 01:01:00,
2013-03-06 19:11:00,19.0,14.0,-100.00,SSE,155,5.0,7.0,79,0.00,,,0.00,,2013-03-07 01:11:00,
2013-03-06 19:21:00,18.0,12.0,-100.00,ESE,110,2.0,4.0,80,0.00,,,0.00,,2013-03-07 01:21:00,
2013-03-06 19:31:00,18.0,14.0,-100.00,SE,135,4.0,6.0,80,0.00,,,0.00,,2013-03-07 01:31:00,
2013-03-06 19:41:00,18.0,12.0,-100.00,SSE,150,6.0,7.0,80,0.00,,,0.00,,2013-03-07 01:41:00,
2013-03-06 19:51:00,18.0,12.0,-100.00,SE,130,4.0,6.0,81,0.00,,,0.00,,2013-03-07 01:51:00,
2013-03-06 20:01:00,17.0,12.0,-100.00,SE,145,5.0,7.0,82,0.00,,,0.00,,2013-03-07 02:01:00,
2013-03-06 20:11:00,17.0,12.0,-100.00,SSE,150,6.0,6.0,82,0.00,,,0.00,,2013-03-07 02:11:00,
2013-03-06 20:21:00,18.0,14.0,-100.00,SE,130,5.0,9.0,82,0.00,,,0.00,,2013-03-07 02:21:00,
2013-03-06 20:32:00,18.0,14.0,-100.00,SE,125,4.0,6.0,82,0.00,,,0.00,,2013-03-07 02:32:00,
2013-03-06 20:41:00,18.0,14.0,-100.00,SE,125,4.0,6.0,82,0.00,,,0.00,,2013-03-07 02:41:00,
2013-03-06 20:51:00,18.0,14.0,-100.00,SE,125,4.0,6.0,82,0.00,,,0.00,,2013-03-07 02:51:00,
2013-03-06 21:02:00,17.0,12.0,-100.00,SE,140,3.0,4.0,83,0.00,,,0.00,,2013-03-07 03:02:00,
2013-03-06 21:11:00,17.0,12.0,-100.00,SSE,160,4.0,6.0,84,0.00,,,0.00,,2013-03-07 03:11:00,
2013-03-06 21:21:00,17.0,12.0,-100.00,SE,135,4.0,5.0,84,0.00,,,0.00,,2013-03-07 03:21:00,
2013-03-06 21:32:00,17.0,12.0,-100.00,SE,135,4.0,6.0,85,0.00,,,0.00,,2013-03-07 03:32:00,
2013-03-06 21:42:00,16.0,12.0,-100.00,ESE,120,4.0,6.0,85,0.00,,,0.00,,2013-03-07 03:42:00,
2013-03-06 21:52:00,16.0,12.0,-100.00,SE,130,4.0,6.0,86,0.00,,,0.00,,2013-03-07 03:52:00,
2013-03-06 22:01:00,16.0,12.0,-100.00,SSE,150,4.0,4.0,86,0.00,,,0.00,,2013-03-07 04:01:00,
2013-03-06 22:11:00,16.0,12.0,-100.00,South,185,4.0,4.0,87,0.00,,,0.00,,2013-03-07 04:11:00,
2013-03-06 22:21:00,16.0,12.0,-100.00,South,190,4.0,4.0,87,0.00,,,0.00,,2013-03-07 04:21:00,
2013-03-06 22:31:00,15.0,12.0,-100.00,SSE,160,2.0,3.0,87,0.00,,,0.00,,2013-03-07 04:31:00,
2013-03-06 22:42:00,15.0,12.0,-100.00,SE,130,3.0,4.0,88,0.00,,,0.00,,2013-03-07 04:42:00,
2013-03-06 22:51:00,15.0,12.0,-100.00,SSE,150,3.0,4.0,89,0.00,,,0.00,,2013-03-07 04:51:00,
2013-03-06 23:01:00,15.0,12.0,-100.00,SE,145,4.0,4.0,90,0.00,,,0.00,,2013-03-07 05:01:00,
2013-03-06 23:12:00,15.0,12.0,-100.00,SE,145,4.0,6.0,90,0.00,,,0.00,,2013-03-07 05:12:00,
2013-03-06 23:22:00,13.0,10.0,-100.00,SE,130,4.0,6.0,91,0.00,,,0.00,,2013-03-07 05:22:00,
2013-03-06 23:32:00,13.0,10.0,-100.00,SE,140,4.0,6.0,91,0.00,,,0.00,,2013-03-07 05:32:00,
2013-03-06 23:42:00,13.0,10.0,-100.00,SE,145,6.0,6.0,91,0.00,,,0.00,,2013-03-07 05:42:00,
2013-03-06 23:52:00,13.0,12.0,-100.00,SE,140,7.0,7.0,92,0.00,,,0.00,,2013-03-07 05:52:00,